Погода в Сачковичах

Россия / Брянская область     52°20′57″N   32°13′07″E
темп.,
°C
ветер,
м/с
пор.,
м/с
влажн.,
%
обл.,
%
осадки,
мм/ч
давл.,
гПа
погр.,
м
23 апреля, пт
пт2300:00+8ююв4109298 0.1 1014200
03:00+7ю4896100 0.5 1013219
06:00+7юз4898100 0.5 1014331
09:00+5сз4693100 2.6 1015789
12:00+9з3565100 2.6 10151279
15:00+9з5654100 2.6 10161473
18:00+9з3654100 0.0 10141705
21:00+6зсз3571100 0.1 1015101
24 апреля, сб
сб2400:00+4з367911 0.1 1014112
03:00+2зюз38865 0.1 1014186
06:00+1з5118699 0.0 1013440
09:00+3з796761 0.0 10141198
12:00+4зсз81174100 0.8 10141342
15:00+6зсз10125274 1.5 10152006
18:00+5сз711545 0.0 10161872
21:00+2з410715 0.0 1017281
25 апреля, вс
вс2500:000зюз410795 0.0 1018216
03:000зюз49805 0.0 1018199
06:00−1юз388236 0.0 1017174
09:00+5ююз5956100 0.0 1015619
12:00+3з4595100 2.6 1014459
15:00+5зсз686787 3.8 10151437
18:00+6зсз6760100 0.1 10151436
21:00+1з37805 0.2 1016131
26 апреля, пн
пн2600:000зюз49855 0.0 1016172
03:00−1зюз38895 0.0 1016165
06:00−1з358999 0.0 1016131
09:00+4з346368 0.0 1015608
12:00+6з4452100 0.2 10141598
15:00+7з4554100 1.3 10141541
18:00+5з3562100 0.7 10131050
21:00+2зюз347196 1.0 101352
27 апреля, вт
вт2700:000з34815 0.0 101455
03:00−1зюз37865 0.0 1013141
06:00−1зюз388986 0.0 1013194
09:00+4з467184 0.0 1013688
12:00+5з677492 0.9 10131002
15:00+7зсз565399 1.3 10131838
18:00+7з565625 0.2 10131493
21:00+2з34744 0.2 101547